| time (UTC) | temp C | wind direction | speed KPH | gust KPH | rain 1hr cm | rain 24hr cm | rain mn cm | humidity % | barometer mb |
| 20260505124532 | 13 | 0 | 1.6 | 16.1 | 0.00 | 0.25 | 0.25 | 93 | 1008.5 |
| 20260505123045 | 13 | 0 | 1.6 | 8.0 | 0.00 | 0.25 | 0.25 | 94 | 1008.6 |
| 20260505121529 | 13 | 205 | 1.6 | 4.8 | 0.00 | 0.25 | 0.25 | 94 | 1009.3 |
| 20260505120037 | 13 | 0 | 1.6 | 4.8 | 0.00 | 0.25 | 0.25 | 94 | 1009.5 |
| 20260505114531 | 13 | 205 | 3.2 | 9.7 | 0.00 | 0.25 | 0.25 | 94 | 1009.5 |
| 20260505113030 | 13 | 215 | 1.6 | 8.0 | 0.00 | 0.25 | 0.25 | 93 | 1009.1 |
| 20260505111535 | 13 | 196 | 3.2 | 14.5 | 0.03 | 0.25 | 0.25 | 93 | 1008.8 |
| 20260505101531 | 13 | 0 | 0.0 | 3.2 | 0.18 | 0.23 | 0.23 | 91 | 1009.2 |
| 20260505100034 | 13 | 0 | 0.0 | 6.4 | 0.23 | 0.23 | 0.23 | 90 | 1009.7 |
| 20260505094532 | 14 | 351 | 0.0 | 9.7 | 0.13 | 0.13 | 0.13 | 88 | 1010.0 |
| 20260505093031 | 15 | 0 | 0.0 | 11.3 | 0.05 | 0.05 | 0.05 | 84 | 1010.0 |
| 20260505091533 | 16 | 326 | 3.2 | 14.5 | 0.05 | 0.05 | 0.05 | 77 | 1009.6 |
| 20260505090036 | 18 | 263 | 3.2 | 17.7 | 0.00 | 0.00 | 0.00 | 63 | 1008.6 |
| 20260505084536 | 18 | 225 | 4.8 | 24.1 | 0.00 | 0.00 | 0.00 | 64 | 1008.0 |
| 20260505083032 | 17 | 211 | 4.8 | 12.9 | 0.00 | 0.00 | 0.00 | 67 | 1007.7 |
| 20260505081532 | 17 | 219 | 3.2 | 8.0 | 0.00 | 0.00 | 0.00 | 68 | 1007.5 |
| 20260505080029 | 16 | 225 | 1.6 | 8.0 | 0.00 | 0.00 | 0.00 | 69 | 1007.0 |
| 20260505074534 | 16 | 226 | 3.2 | 12.9 | 0.00 | 0.00 | 0.00 | 68 | 1007.2 |
| 20260505073030 | 17 | 248 | 4.8 | 14.5 | 0.00 | 0.00 | 0.00 | 67 | 1007.2 |
| 20260505071532 | 17 | 225 | 6.4 | 14.5 | 0.00 | 0.00 | 0.00 | 68 | 1006.9 |
| 20260505070030 | 17 | 203 | 6.4 | 16.1 | 0.00 | 0.00 | 0.00 | 67 | 1006.8 |
| 20260505064534 | 17 | 219 | 6.4 | 14.5 | 0.00 | 0.00 | 0.00 | 67 | 1006.9 |
| 20260505063029 | 16 | 209 | 6.4 | 12.9 | 0.00 | 0.00 | 0.00 | 67 | 1006.9 |
| 20260505061528 | 17 | 233 | 8.0 | 17.7 | 0.00 | 0.00 | 0.00 | 66 | 1006.9 |
| 20260505060030 | 17 | 248 | 9.7 | 20.9 | 0.00 | 0.00 | 0.00 | 66 | 1006.9 |
| 20260505054544 | 17 | 210 | 8.0 | 22.5 | 0.00 | 0.00 | 0.00 | 67 | 1006.6 |
| 20260505053029 | 17 | 178 | 8.0 | 16.1 | 0.00 | 0.00 | 0.00 | 66 | 1006.1 |
| 20260505051532 | 17 | 235 | 8.0 | 17.7 | 0.00 | 0.00 | 0.00 | 66 | 1006.2 |
| 20260505041532 | 17 | 211 | 4.8 | 12.9 | 0.00 | 0.00 | 0.00 | 67 | 1006.9 |
| 20260505040034 | 17 | 210 | 4.8 | 16.1 | 0.00 | 0.00 | 0.00 | 66 | 1007.1 |
| 20260505034538 | 18 | 213 | 6.4 | 16.1 | 0.00 | 0.00 | 0.00 | 66 | 1007.1 |
| 20260505033032 | 18 | 222 | 4.8 | 16.1 | 0.00 | 0.00 | 0.00 | 65 | 1007.1 |
| 20260505031530 | 18 | 208 | 6.4 | 14.5 | 0.00 | 0.00 | 0.00 | 66 | 1007.0 |
| 20260505030044 | 18 | 204 | 6.4 | 14.5 | 0.00 | 0.00 | 0.00 | 65 | 1006.9 |
| 20260505024531 | 18 | 206 | 6.4 | 14.5 | 0.00 | 0.00 | 0.00 | 64 | 1006.8 |
| 20260505023039 | 18 | 210 | 6.4 | 12.9 | 0.00 | 0.00 | 0.00 | 64 | 1006.5 |
| 20260505021533 | 18 | 209 | 4.8 | 11.3 | 0.00 | 0.00 | 0.00 | 63 | 1006.4 |
| 20260505020030 | 18 | 216 | 4.8 | 12.9 | 0.00 | 0.00 | 0.00 | 63 | 1006.0 |
| 20260505014536 | 19 | 226 | 4.8 | 11.3 | 0.00 | 0.00 | 0.00 | 62 | 1005.8 |
| 20260505013038 | 20 | 213 | 6.4 | 16.1 | 0.00 | 0.00 | 0.00 | 60 | 1005.5 |
| 20260505011532 | 20 | 213 | 6.4 | 14.5 | 0.00 | 0.00 | 0.00 | 59 | 1005.3 |
| 20260505010034 | 20 | 223 | 6.4 | 17.7 | 0.00 | 0.00 | 0.00 | 58 | 1005.3 |
| 20260505004553 | 21 | 212 | 6.4 | 17.7 | 0.00 | 0.00 | 0.00 | 57 | 1005.3 |
| 20260505003032 | 21 | 218 | 9.7 | 20.9 | 0.00 | 0.00 | 0.00 | 55 | 1005.5 |
| 20260505001535 | 21 | 215 | 9.7 | 24.1 | 0.00 | 0.00 | 0.00 | 57 | 1005.4 |
| 20260505000036 | 22 | 227 | 9.7 | 20.9 | 0.00 | 0.00 | 0.00 | 56 | 1005.7 |
| 20260504234531 | 22 | 221 | 12.9 | 24.1 | 0.00 | 0.00 | 0.00 | 56 | 1005.9 |
| 20260504233032 | 22 | 207 | 9.7 | 24.1 | 0.00 | 0.00 | 0.00 | 55 | 1006.0 |
| 20260504231530 | 22 | 232 | 6.4 | 22.5 | 0.00 | 0.00 | 0.00 | 53 | 1006.1 |
| 20260504230030 | 23 | 195 | 9.7 | 32.2 | 0.00 | 0.00 | 0.00 | 52 | 1006.4 |
| 20260504224534 | 23 | 232 | 12.9 | 37.0 | 0.00 | 0.00 | 0.00 | 50 | 1006.5 |
| 20260504223030 | 23 | 232 | 14.5 | 32.2 | 0.00 | 0.00 | 0.00 | 49 | 1006.6 |
| 20260504221537 | 23 | 215 | 11.3 | 43.5 | 0.00 | 0.00 | 0.00 | 51 | 1006.6 |
| 20260504220030 | 23 | 224 | 11.3 | 37.0 | 0.00 | 0.00 | 0.00 | 47 | 1006.6 |
| 20260504214531 | 24 | 215 | 12.9 | 24.1 | 0.00 | 0.00 | 0.00 | 52 | 1006.4 |
| 20260504213038 | 23 | 207 | 3.2 | 12.9 | 0.00 | 0.00 | 0.00 | 57 | 1006.7 |
| 20260504211535 | 23 | 0 | 0.0 | 12.9 | 0.00 | 0.00 | 0.00 | 56 | 1007.0 |
| 20260504210030 | 23 | 234 | 4.8 | 22.5 | 0.00 | 0.00 | 0.00 | 55 | 1007.3 |
| 20260504204535 | 23 | 234 | 8.0 | 17.7 | 0.00 | 0.00 | 0.00 | 52 | 1007.5 |
| 20260504203033 | 24 | 214 | 4.8 | 14.5 | 0.00 | 0.00 | 0.00 | 52 | 1007.6 |
| 20260504201530 | 23 | 222 | 6.4 | 29.0 | 0.00 | 0.00 | 0.00 | 54 | 1007.8 |
| 20260504200030 | 23 | 210 | 8.0 | 19.3 | 0.00 | 0.00 | 0.00 | 54 | 1008.0 |
| 20260504194530 | 22 | 221 | 4.8 | 24.1 | 0.00 | 0.00 | 0.00 | 56 | 1008.3 |
| 20260504193030 | 23 | 217 | 12.9 | 29.0 | 0.00 | 0.00 | 0.00 | 58 | 1008.4 |
| 20260504191557 | 22 | 259 | 8.0 | 24.1 | 0.00 | 0.00 | 0.00 | 58 | 1008.7 |
| 20260504190037 | 22 | 246 | 11.3 | 16.1 | 0.00 | 0.00 | 0.00 | 61 | 1008.8 |
| 20260504184541 | 21 | 229 | 8.0 | 24.1 | 0.00 | 0.00 | 0.00 | 62 | 1009.1 |
| 20260504183032 | 21 | 196 | 8.0 | 20.9 | 0.00 | 0.00 | 0.00 | 63 | 1009.1 |
| 20260504181533 | 20 | 232 | 8.0 | 20.9 | 0.00 | 0.00 | 0.00 | 63 | 1009.0 |
| 20260504180035 | 21 | 211 | 9.7 | 29.0 | 0.00 | 0.00 | 0.00 | 63 | 1009.0 |
| 20260504174530 | 20 | 207 | 14.5 | 27.4 | 0.00 | 0.00 | 0.00 | 62 | 1008.9 |
| 20260504173030 | 20 | 204 | 8.0 | 30.6 | 0.00 | 0.00 | 0.00 | 65 | 1008.7 |
| 20260504171530 | 20 | 196 | 9.7 | 25.7 | 0.00 | 0.00 | 0.00 | 65 | 1008.7 |